ACA1112 CYVR-CYXE

Flight info

Callsign ACA1112
Flight time 1h 41m
Altitude 35000
Route DAPED DCT PETLI DCT DATNO DCT MAVOB MAVOB7
Aircraft A320/M-SDE3FGHIRWY/LB1

Departure

Time 2026-05-04 02:20
Airport Vancouver International Airport (CYVR)

Arrival

Time 2026-05-04 04:02
Airport Saskatoon John G. Diefenbaker International Airport (CYXE)
Time Latitude Longitude Altitude Speed Heading
2026-05-04 01:41 49.19642 -123.18567 18 ft 0 kts 188°
2026-05-04 02:10 49.19658 -123.18565 18 ft 4 kts 186°
2026-05-04 02:10 49.19684 -123.18556 17 ft 4 kts 206°
2026-05-04 02:11 49.19703 -123.18533 19 ft 4 kts 246°
2026-05-04 02:11 49.19707 -123.18509 20 ft 4 kts 274°
2026-05-04 02:11 49.19706 -123.18492 20 ft 1 kts 279°
2026-05-04 02:11 49.19706 -123.18491 20 ft 0 kts 279°
2026-05-04 02:13 49.19709 -123.18520 20 ft 8 kts 278°
2026-05-04 02:13 49.19718 -123.18623 27 ft 11 kts 263°
2026-05-04 02:14 49.19658 -123.18686 17 ft 11 kts 192°
2026-05-04 02:14 49.19581 -123.18703 17 ft 14 kts 186°
2026-05-04 02:14 49.19481 -123.18731 17 ft 14 kts 192°
2026-05-04 02:14 49.19397 -123.18697 17 ft 12 kts 150°
2026-05-04 02:15 49.19320 -123.18704 17 ft 11 kts 189°
2026-05-04 02:15 49.19246 -123.18723 17 ft 11 kts 189°
2026-05-04 02:15 49.19167 -123.18696 18 ft 12 kts 146°
2026-05-04 02:15 49.19105 -123.18622 18 ft 11 kts 141°
2026-05-04 02:16 49.19044 -123.18547 19 ft 13 kts 141°
2026-05-04 02:16 49.18974 -123.18461 20 ft 12 kts 136°
2026-05-04 02:16 49.18943 -123.18339 18 ft 16 kts 101°
2026-05-04 02:16 49.18921 -123.18149 18 ft 18 kts 100°
2026-05-04 02:17 49.18901 -123.17972 18 ft 16 kts 100°
2026-05-04 02:17 49.18879 -123.17780 18 ft 20 kts 100°
2026-05-04 02:17 49.18855 -123.17572 18 ft 20 kts 100°
2026-05-04 02:17 49.18828 -123.17333 19 ft 25 kts 100°
2026-05-04 02:18 49.18795 -123.17048 18 ft 28 kts 99°
2026-05-04 02:18 49.18763 -123.16751 18 ft 29 kts 99°
2026-05-04 02:18 49.18726 -123.16443 19 ft 18 kts 100°
2026-05-04 02:18 49.18687 -123.16276 19 ft 16 kts 131°
2026-05-04 02:19 49.18634 -123.16143 19 ft 14 kts 101°
2026-05-04 02:19 49.18581 -123.16042 20 ft 12 kts 167°
2026-05-04 02:19 49.18507 -123.16068 21 ft 14 kts 216°
2026-05-04 02:19 49.18492 -123.16250 21 ft 25 kts 279°
2026-05-04 02:20 49.18575 -123.16966 18 ft 113 kts 280°
2026-05-04 02:20 49.18754 -123.18520 130 ft 173 kts 279°
2026-05-04 02:20 49.18964 -123.20455 689 ft 197 kts 280°
2026-05-04 02:20 49.19247 -123.22634 1402 ft 221 kts 281°
2026-05-04 02:21 49.19586 -123.25025 2354 ft 236 kts 281°
2026-05-04 02:21 49.19885 -123.27595 3343 ft 253 kts 281°
2026-05-04 02:21 49.20556 -123.30114 4338 ft 263 kts 307°
2026-05-04 02:21 49.21979 -123.31883 5121 ft 270 kts 338°
2026-05-04 02:22 49.23830 -123.32353 5954 ft 273 kts
2026-05-04 02:22 49.25612 -123.31407 6833 ft 275 kts 34°
2026-05-04 02:22 49.26888 -123.29247 7707 ft 279 kts 63°
2026-05-04 02:22 49.27302 -123.26351 8604 ft 284 kts 91°
2026-05-04 02:23 49.27112 -123.23330 9571 ft 285 kts 95°
2026-05-04 02:23 49.26889 -123.20285 10278 ft 296 kts 95°
2026-05-04 02:23 49.26646 -123.17035 10584 ft 318 kts 95°
2026-05-04 02:23 49.26386 -123.13620 11177 ft 328 kts 95°
2026-05-04 02:24 49.26123 -123.10121 11912 ft 333 kts 95°
2026-05-04 02:24 49.25858 -123.06569 12652 ft 338 kts 95°
2026-05-04 02:24 49.25591 -123.02965 13387 ft 343 kts 95°
2026-05-04 02:24 49.25323 -122.99351 14059 ft 348 kts 95°
2026-05-04 02:25 49.25048 -122.95645 14704 ft 352 kts 95°
2026-05-04 02:25 49.24771 -122.91847 15365 ft 356 kts 94°
2026-05-04 02:25 49.24494 -122.88063 16022 ft 360 kts 94°
2026-05-04 02:25 49.24211 -122.84282 16657 ft 364 kts 94°
2026-05-04 02:26 49.23916 -122.80419 17295 ft 368 kts 94°
2026-05-04 02:26 49.23620 -122.76510 17948 ft 371 kts 94°
2026-05-04 02:26 49.23323 -122.72561 18494 ft 376 kts 94°
2026-05-04 02:26 49.23015 -122.68566 19034 ft 380 kts 94°
2026-05-04 02:27 49.22698 -122.64534 19597 ft 383 kts 94°
2026-05-04 02:27 49.22380 -122.60470 20171 ft 386 kts 94°
2026-05-04 02:27 49.22059 -122.56375 20745 ft 390 kts 94°
2026-05-04 02:27 49.21736 -122.52242 21295 ft 393 kts 94°
2026-05-04 02:28 49.21408 -122.48069 21854 ft 396 kts 94°
2026-05-04 02:28 49.21081 -122.43869 22409 ft 399 kts 94°
2026-05-04 02:28 49.20752 -122.39636 22956 ft 403 kts 94°
2026-05-04 02:28 49.20415 -122.35366 23501 ft 406 kts 94°
2026-05-04 02:29 49.20070 -122.31068 23958 ft 409 kts 94°
2026-05-04 02:29 49.19718 -122.26742 24436 ft 411 kts 94°
2026-05-04 02:29 49.19366 -122.22398 24906 ft 413 kts 93°
2026-05-04 02:29 49.19012 -122.18036 25365 ft 414 kts 94°
2026-05-04 02:30 49.18657 -122.13651 25796 ft 416 kts 93°
2026-05-04 02:30 49.18301 -122.09253 26204 ft 418 kts 93°
2026-05-04 02:30 49.17940 -122.04836 26626 ft 420 kts 93°
2026-05-04 02:30 49.17576 -122.00405 27040 ft 421 kts 93°
2026-05-04 02:31 49.17207 -121.95950 27454 ft 423 kts 93°
2026-05-04 02:31 49.16834 -121.91476 27873 ft 425 kts 94°
2026-05-04 02:31 49.16457 -121.86986 28252 ft 428 kts 94°
2026-05-04 02:31 49.16076 -121.82469 28635 ft 430 kts 94°
2026-05-04 02:32 49.15691 -121.77932 29031 ft 431 kts 94°
2026-05-04 02:32 49.15302 -121.73381 29413 ft 433 kts 94°
2026-05-04 02:32 49.15003 -121.68812 29819 ft 432 kts 88°
2026-05-04 02:32 49.15132 -121.64232 30162 ft 430 kts 78°
2026-05-04 02:33 49.15551 -121.59714 30478 ft 431 kts 77°
2026-05-04 02:33 49.15967 -121.55173 30791 ft 432 kts 78°
2026-05-04 02:33 49.16376 -121.50624 31118 ft 433 kts 78°
2026-05-04 02:33 49.16775 -121.46118 31426 ft 433 kts 78°
2026-05-04 02:34 49.17171 -121.41565 31841 ft 430 kts 77°
2026-05-04 02:34 49.17561 -121.37053 32282 ft 427 kts 77°
2026-05-04 02:34 49.17951 -121.32572 32736 ft 424 kts 76°
2026-05-04 02:34 49.18340 -121.28128 33193 ft 420 kts 76°
2026-05-04 02:35 49.18727 -121.23718 33719 ft 417 kts 76°
2026-05-04 02:35 49.19109 -121.19349 34102 ft 414 kts 76°
2026-05-04 02:35 49.19489 -121.14996 34491 ft 412 kts 75°
2026-05-04 02:35 49.19868 -121.10656 34770 ft 412 kts 76°
2026-05-04 02:36 49.20241 -121.06317 34882 ft 413 kts 75°
2026-05-04 02:36 49.20616 -121.01932 34916 ft 418 kts 75°
2026-05-04 02:36 49.21367 -120.93088 34916 ft 420 kts 76°
2026-05-04 02:37 49.22107 -120.84233 34928 ft 420 kts 76°
2026-05-04 02:37 49.22836 -120.75372 34930 ft 420 kts 76°
2026-05-04 02:38 49.23565 -120.66518 34952 ft 419 kts 76°
2026-05-04 02:38 49.24295 -120.57652 34940 ft 421 kts 76°
2026-05-04 02:39 49.25016 -120.48765 34937 ft 421 kts 76°
2026-05-04 02:39 49.25732 -120.39849 34940 ft 422 kts 76°
2026-05-04 02:40 49.26439 -120.30937 34934 ft 422 kts 76°
2026-05-04 02:40 49.27134 -120.22007 34935 ft 422 kts 76°
2026-05-04 02:41 49.27826 -120.13064 34936 ft 423 kts 76°
2026-05-04 02:41 49.28515 -120.04102 34915 ft 424 kts 76°
2026-05-04 02:42 49.29198 -119.95129 34902 ft 425 kts 76°
2026-05-04 02:42 49.29872 -119.86140 34884 ft 425 kts 76°
2026-05-04 02:43 49.30546 -119.77138 34878 ft 425 kts 76°
2026-05-04 02:43 49.31204 -119.68123 34884 ft 426 kts 77°
2026-05-04 02:44 49.32236 -119.59251 34868 ft 417 kts 65°
2026-05-04 02:44 49.34192 -119.50882 34863 ft 417 kts 64°
2026-05-04 02:45 49.36149 -119.42501 34863 ft 418 kts 64°
2026-05-04 02:45 49.38095 -119.34096 34866 ft 418 kts 64°
2026-05-04 02:46 49.40040 -119.25654 34879 ft 420 kts 64°
2026-05-04 02:46 49.41990 -119.17194 34884 ft 421 kts 64°
2026-05-04 02:47 49.43918 -119.08756 34892 ft 421 kts 64°
2026-05-04 02:47 49.45867 -119.00197 34892 ft 421 kts 64°
2026-05-04 02:48 49.47799 -118.91680 34931 ft 422 kts 65°
2026-05-04 02:48 49.49722 -118.83197 34903 ft 423 kts 65°
2026-05-04 02:49 49.51653 -118.74612 34904 ft 425 kts 65°
2026-05-04 02:49 49.53581 -118.66005 34905 ft 426 kts 65°
2026-05-04 02:50 49.55506 -118.57378 34907 ft 426 kts 65°
2026-05-04 02:50 49.57121 -118.50133 34934 ft 427 kts 65°
2026-05-04 02:51 49.59359 -118.40055 34908 ft 428 kts 65°
2026-05-04 02:51 49.60969 -118.32758 34905 ft 429 kts 65°
2026-05-04 02:52 49.62880 -118.24029 34903 ft 430 kts 65°
2026-05-04 02:52 49.64780 -118.15341 34905 ft 430 kts 65°
2026-05-04 02:53 49.66702 -118.06529 34926 ft 431 kts 65°
2026-05-04 02:53 49.68600 -117.97789 34901 ft 433 kts 65°
2026-05-04 02:54 49.70513 -117.88940 34891 ft 434 kts 66°
2026-05-04 02:54 49.72418 -117.80083 34893 ft 435 kts 66°
2026-05-04 02:55 49.75267 -117.66775 34896 ft 435 kts 66°
2026-05-04 02:56 49.77162 -117.57877 34900 ft 436 kts 66°
2026-05-04 02:56 49.79049 -117.48977 34903 ft 436 kts 66°
2026-05-04 02:57 49.80929 -117.40055 34906 ft 436 kts 66°
2026-05-04 02:57 49.82803 -117.31140 34905 ft 436 kts 66°
2026-05-04 02:58 49.84673 -117.22202 34931 ft 437 kts 66°
2026-05-04 02:58 49.86537 -117.13252 34912 ft 436 kts 66°
2026-05-04 02:59 49.88403 -117.04273 34914 ft 438 kts 66°
2026-05-04 02:59 49.90255 -116.95281 34903 ft 438 kts 66°
2026-05-04 03:00 49.92099 -116.86269 34918 ft 438 kts 66°
2026-05-04 03:00 49.93947 -116.77250 34925 ft 439 kts 66°
2026-05-04 03:01 49.95795 -116.68177 34920 ft 440 kts 66°
2026-05-04 03:01 49.97639 -116.59101 34933 ft 441 kts 66°
2026-05-04 03:02 49.99479 -116.50012 34934 ft 441 kts 67°
2026-05-04 03:02 50.01305 -116.40896 34964 ft 442 kts 66°
2026-05-04 03:03 50.03130 -116.31752 34946 ft 443 kts 66°
2026-05-04 03:03 50.04948 -116.22584 34934 ft 444 kts 67°
2026-05-04 03:04 50.06823 -116.13433 34924 ft 440 kts 61°
2026-05-04 03:04 50.09202 -116.04724 34915 ft 440 kts 61°
2026-05-04 03:05 50.11594 -115.95940 34938 ft 441 kts 60°
2026-05-04 03:05 50.13976 -115.87112 34901 ft 442 kts 60°
2026-05-04 03:06 50.16354 -115.78258 34895 ft 443 kts 61°
2026-05-04 03:06 50.18729 -115.69373 34900 ft 444 kts 60°
2026-05-04 03:07 50.21107 -115.60480 34938 ft 444 kts 60°
2026-05-04 03:07 50.23476 -115.51578 34918 ft 443 kts 60°
2026-05-04 03:08 50.25839 -115.42646 34921 ft 445 kts 61°
2026-05-04 03:08 50.28201 -115.33687 34926 ft 446 kts 61°
2026-05-04 03:09 50.30563 -115.24704 34942 ft 447 kts 60°
2026-05-04 03:09 50.32920 -115.15701 34967 ft 447 kts 60°
2026-05-04 03:10 50.35277 -115.06685 34979 ft 448 kts 61°
2026-05-04 03:10 50.37623 -114.97651 34972 ft 447 kts 61°
2026-05-04 03:11 50.39963 -114.88604 34997 ft 447 kts 61°
2026-05-04 03:11 50.42290 -114.79560 35052 ft 448 kts 61°
2026-05-04 03:12 50.44618 -114.70485 35023 ft 449 kts 61°
2026-05-04 03:12 50.46945 -114.61386 35015 ft 450 kts 61°
2026-05-04 03:13 50.49266 -114.52256 35005 ft 450 kts 61°
2026-05-04 03:13 50.51567 -114.43189 34988 ft 450 kts 61°
2026-05-04 03:14 50.53895 -114.33997 35019 ft 450 kts 60°
2026-05-04 03:14 50.56207 -114.24832 34986 ft 450 kts 61°
2026-05-04 03:15 50.58483 -114.15721 34982 ft 451 kts 61°
2026-05-04 03:15 50.60770 -114.06531 34973 ft 451 kts 61°
2026-05-04 03:16 50.63052 -113.97338 34963 ft 451 kts 61°
2026-05-04 03:16 50.65335 -113.88142 34994 ft 450 kts 60°
2026-05-04 03:17 50.67602 -113.78953 34988 ft 450 kts 60°
2026-05-04 03:17 50.69858 -113.69746 34978 ft 450 kts 60°
2026-05-04 03:18 50.72106 -113.60544 34969 ft 450 kts 60°
2026-05-04 03:18 50.74348 -113.51323 34966 ft 450 kts 61°
2026-05-04 03:19 50.76581 -113.42090 34968 ft 450 kts 61°
2026-05-04 03:19 50.78812 -113.32853 34967 ft 450 kts 61°
2026-05-04 03:20 50.81037 -113.23601 34966 ft 451 kts 61°
2026-05-04 03:20 50.83250 -113.14325 34967 ft 451 kts 61°
2026-05-04 03:21 50.85462 -113.05036 34990 ft 451 kts 60°
2026-05-04 03:21 50.87674 -112.95730 34972 ft 452 kts 60°
2026-05-04 03:22 50.89880 -112.86414 34970 ft 452 kts 61°
2026-05-04 03:22 50.92060 -112.77132 34962 ft 452 kts 61°
2026-05-04 03:23 50.94248 -112.67778 34992 ft 453 kts 60°
2026-05-04 03:23 50.96434 -112.58394 34956 ft 454 kts 60°
2026-05-04 03:24 50.98620 -112.48982 34949 ft 455 kts 60°
2026-05-04 03:24 51.00803 -112.39551 34949 ft 455 kts 60°
2026-05-04 03:25 51.02980 -112.30101 34948 ft 456 kts 60°
2026-05-04 03:25 51.05148 -112.20636 34994 ft 456 kts 60°
2026-05-04 03:26 51.07310 -112.11151 34984 ft 456 kts 60°
2026-05-04 03:26 51.09460 -112.01657 34980 ft 456 kts 60°
2026-05-04 03:27 51.11610 -111.92163 34978 ft 456 kts 60°
2026-05-04 03:27 51.13748 -111.82653 35003 ft 457 kts 60°
2026-05-04 03:28 51.15878 -111.73126 34978 ft 456 kts 60°
2026-05-04 03:28 51.17995 -111.63603 34971 ft 456 kts 60°
2026-05-04 03:29 51.20112 -111.54076 34964 ft 456 kts 60°
2026-05-04 03:29 51.22217 -111.44534 34962 ft 456 kts 60°
2026-05-04 03:30 51.24315 -111.34973 34978 ft 456 kts 60°
2026-05-04 03:30 51.26410 -111.25418 34966 ft 456 kts 60°
2026-05-04 03:31 51.28495 -111.15844 34954 ft 456 kts 61°
2026-05-04 03:31 51.30567 -111.06260 34939 ft 456 kts 61°
2026-05-04 03:32 51.32639 -110.96685 34991 ft 456 kts 60°
2026-05-04 03:32 51.34700 -110.87145 34954 ft 456 kts 61°
2026-05-04 03:33 51.36755 -110.77533 34943 ft 457 kts 61°
2026-05-04 03:33 51.38797 -110.67896 34940 ft 457 kts 61°
2026-05-04 03:34 51.40840 -110.58257 34920 ft 457 kts 61°
2026-05-04 03:34 51.42884 -110.48580 34955 ft 460 kts 61°
2026-05-04 03:35 51.44600 -110.40420 34939 ft 461 kts 61°
2026-05-04 03:35 51.46623 -110.30734 34925 ft 462 kts 61°
2026-05-04 03:36 51.48646 -110.20946 34922 ft 462 kts 61°
2026-05-04 03:36 51.50666 -110.11141 34917 ft 463 kts 61°
2026-05-04 03:37 51.52691 -110.01313 34927 ft 465 kts 61°
2026-05-04 03:37 51.54733 -109.91417 34924 ft 468 kts 62°
2026-05-04 03:38 51.56768 -109.81464 34921 ft 470 kts 62°
2026-05-04 03:38 51.58790 -109.71456 34922 ft 471 kts 62°
2026-05-04 03:39 51.60815 -109.61428 34943 ft 474 kts 62°
2026-05-04 03:39 51.62844 -109.51311 34910 ft 475 kts 62°
2026-05-04 03:40 51.64866 -109.41175 34896 ft 476 kts 62°
2026-05-04 03:40 51.66879 -109.31023 34887 ft 476 kts 63°
2026-05-04 03:41 51.68886 -109.20842 34891 ft 477 kts 63°
2026-05-04 03:41 51.69893 -109.15758 34766 ft 479 kts 62°
2026-05-04 03:41 51.70910 -109.10619 34017 ft 481 kts 62°
2026-05-04 03:41 51.71917 -109.05490 33379 ft 477 kts 61°
2026-05-04 03:42 51.72902 -109.00412 32777 ft 472 kts 61°
2026-05-04 03:42 51.73873 -108.95375 32160 ft 468 kts 61°
2026-05-04 03:42 51.74834 -108.90373 31537 ft 465 kts 60°
2026-05-04 03:42 51.75792 -108.85405 30903 ft 462 kts 60°
2026-05-04 03:43 51.76749 -108.80459 30268 ft 461 kts 59°
2026-05-04 03:43 51.77707 -108.75522 29639 ft 461 kts 60°
2026-05-04 03:43 51.78652 -108.70652 28883 ft 460 kts 60°
2026-05-04 03:43 51.79596 -108.65749 28263 ft 455 kts 60°
2026-05-04 03:44 51.80526 -108.60883 27636 ft 451 kts 60°
2026-05-04 03:44 51.81443 -108.56051 26998 ft 448 kts 61°
2026-05-04 03:44 51.82349 -108.51256 26376 ft 445 kts 61°
2026-05-04 03:44 51.83251 -108.46491 25771 ft 441 kts 61°
2026-05-04 03:45 51.84146 -108.41762 25171 ft 438 kts 61°
2026-05-04 03:45 51.85037 -108.37064 24584 ft 435 kts 61°
2026-05-04 03:45 51.85930 -108.32335 24011 ft 433 kts 61°
2026-05-04 03:45 51.86790 -108.27750 23488 ft 430 kts 64°
2026-05-04 03:46 51.87654 -108.23130 22875 ft 426 kts 64°
2026-05-04 03:46 51.88517 -108.18508 22363 ft 420 kts 64°
2026-05-04 03:46 51.89346 -108.14068 21849 ft 416 kts 64°
2026-05-04 03:46 51.90173 -108.09614 21340 ft 412 kts 64°
2026-05-04 03:47 51.90992 -108.05194 20821 ft 408 kts 65°
2026-05-04 03:47 51.91804 -108.00806 20305 ft 405 kts 65°
2026-05-04 03:47 51.92609 -107.96454 19767 ft 402 kts 65°
2026-05-04 03:47 51.93406 -107.92124 19240 ft 400 kts 65°
2026-05-04 03:48 51.94200 -107.87813 18699 ft 398 kts 65°
2026-05-04 03:48 51.94991 -107.83519 18177 ft 397 kts 67°
2026-05-04 03:48 51.95780 -107.79238 17573 ft 395 kts 67°
2026-05-04 03:48 51.96541 -107.75066 17150 ft 376 kts 67°
2026-05-04 03:49 51.97255 -107.71090 16662 ft 359 kts 67°
2026-05-04 03:49 51.97938 -107.67283 16182 ft 344 kts 66°
2026-05-04 03:49 51.98598 -107.63616 15726 ft 337 kts 66°
2026-05-04 03:49 51.99260 -107.59984 15277 ft 335 kts 66°
2026-05-04 03:50 51.99918 -107.56370 14819 ft 332 kts 66°
2026-05-04 03:50 52.00570 -107.52783 14385 ft 332 kts 66°
2026-05-04 03:50 52.01214 -107.49182 13942 ft 333 kts 69°
2026-05-04 03:50 52.01570 -107.45425 13480 ft 341 kts 81°
2026-05-04 03:51 52.01531 -107.41551 13002 ft 344 kts 86°
2026-05-04 03:51 52.01418 -107.37676 12567 ft 343 kts 86°
2026-05-04 03:51 52.01305 -107.33804 12059 ft 343 kts 86°
2026-05-04 03:51 52.01191 -107.29936 11575 ft 342 kts 86°
2026-05-04 03:52 52.01075 -107.26078 11100 ft 341 kts 86°
2026-05-04 03:52 52.00958 -107.22239 10616 ft 340 kts 86°
2026-05-04 03:52 52.00839 -107.18435 10298 ft 328 kts 86°
2026-05-04 03:52 52.00717 -107.14845 9933 ft 312 kts 85°
2026-05-04 03:53 52.00603 -107.11378 9760 ft 307 kts 85°
2026-05-04 03:53 52.00496 -107.07926 9615 ft 306 kts 85°
2026-05-04 03:53 52.00394 -107.04469 9473 ft 305 kts 85°
2026-05-04 03:53 52.00288 -107.01098 9338 ft 294 kts 85°
2026-05-04 03:54 52.00180 -106.97884 9197 ft 283 kts 85°
2026-05-04 03:54 52.00073 -106.94750 9042 ft 274 kts 84°
2026-05-04 03:54 51.99972 -106.91690 8767 ft 269 kts 84°
2026-05-04 03:54 51.99875 -106.88708 8626 ft 260 kts 84°
2026-05-04 03:55 51.99777 -106.85826 8459 ft 254 kts 84°
2026-05-04 03:55 51.99689 -106.82908 7799 ft 265 kts 84°
2026-05-04 03:55 51.99602 -106.79902 7166 ft 267 kts 84°
2026-05-04 03:55 51.99504 -106.76921 6652 ft 261 kts 84°
2026-05-04 03:56 51.99570 -106.74109 6196 ft 234 kts 69°
2026-05-04 03:56 52.00012 -106.71697 5673 ft 219 kts 61°
2026-05-04 03:56 52.00488 -106.69444 5244 ft 206 kts 62°
2026-05-04 03:56 52.00944 -106.67278 4700 ft 197 kts 62°
2026-05-04 03:57 52.01352 -106.65301 4554 ft 171 kts 60°
2026-05-04 03:57 52.01874 -106.63743 4510 ft 147 kts 36°
2026-05-04 03:57 52.02674 -106.62876 4474 ft 134 kts 13°
2026-05-04 03:57 52.03567 -106.62656 4298 ft 128 kts 353°
2026-05-04 03:58 52.05254 -106.63477 3961 ft 126 kts 342°
2026-05-04 03:58 52.06080 -106.63941 3788 ft 125 kts 342°
2026-05-04 03:58 52.06902 -106.64404 3630 ft 125 kts 343°
2026-05-04 03:59 52.07733 -106.64870 3446 ft 127 kts 343°
2026-05-04 03:59 52.08573 -106.65340 3265 ft 128 kts 342°
2026-05-04 03:59 52.09415 -106.65811 3089 ft 128 kts 342°
2026-05-04 03:59 52.10260 -106.66281 2909 ft 127 kts 343°
2026-05-04 04:00 52.11094 -106.66748 2734 ft 127 kts 343°
2026-05-04 04:00 52.11927 -106.67215 2542 ft 127 kts 342°
2026-05-04 04:00 52.12770 -106.67687 2366 ft 129 kts 340°
2026-05-04 04:00 52.13634 -106.68171 2197 ft 133 kts 341°
2026-05-04 04:01 52.14509 -106.68658 2042 ft 132 kts 341°
2026-05-04 04:01 52.15393 -106.69150 1877 ft 136 kts 339°
2026-05-04 04:01 52.16288 -106.69674 1715 ft 134 kts 340°
2026-05-04 04:01 52.17086 -106.70120 1651 ft 101 kts 340°
2026-05-04 04:02 52.17491 -106.70343 1648 ft 24 kts 341°
2026-05-04 04:02 52.17596 -106.70401 1647 ft 10 kts 341°
2026-05-04 04:02 52.17662 -106.70377 1647 ft 11 kts 59°
2026-05-04 04:02 52.17664 -106.70241 1647 ft 12 kts 101°
2026-05-04 04:03 52.17648 -106.70120 1648 ft 11 kts 102°
2026-05-04 04:03 52.17622 -106.69902 1650 ft 22 kts 101°
2026-05-04 04:03 52.17547 -106.69819 1650 ft 12 kts 166°
2026-05-04 04:03 52.17466 -106.69781 1650 ft 12 kts 160°
2026-05-04 04:04 52.17387 -106.69739 1650 ft 15 kts 162°
2026-05-04 04:04 52.17261 -106.69667 1650 ft 20 kts 159°
2026-05-04 04:04 52.17135 -106.69595 1650 ft 19 kts 161°
2026-05-04 04:04 52.17020 -106.69531 1650 ft 7 kts 158°
2026-05-04 04:05 52.17001 -106.69481 1650 ft 5 kts 89°
2026-05-04 04:05 52.17027 -106.69425 1650 ft 10 kts 42°
2026-05-04 04:05 52.17086 -106.69332 1650 ft 10 kts 57°
2026-05-04 04:05 52.17101 -106.69259 1650 ft 0 kts 103°
2026-05-04 04:06 52.17104 -106.69231 1650 ft 4 kts 78°
2026-05-04 04:06 52.17105 -106.69188 1650 ft 3 kts 106°
2026-05-04 04:06 52.17091 -106.69168 1650 ft 2 kts 154°
2026-05-04 04:06 52.17077 -106.69161 1650 ft 2 kts 160°
2026-05-04 04:07 52.17063 -106.69153 1650 ft 3 kts 161°
2026-05-04 04:07 52.17051 -106.69146 1650 ft 0 kts 161°
2026-05-04 04:15 52.09456 -106.65834 3097 ft 126 kts 342°
2026-05-04 04:15 52.10250 -106.66275 2927 ft 128 kts 343°
2026-05-04 04:16 52.11103 -106.66753 2755 ft 127 kts 343°
2026-05-04 04:16 52.11895 -106.67197 2567 ft 127 kts 342°
2026-05-04 04:16 52.12615 -106.67600 2417 ft 131 kts 341°
2026-05-04 04:16 52.12780 -106.67693 2377 ft 131 kts 341°
2026-05-04 04:17 52.14290 -106.68539 2077 ft 140 kts 340°
2026-05-04 04:18 52.15105 -106.68984 1921 ft 148 kts 340°
2026-05-04 04:18 52.15496 -106.69212 1867 ft 152 kts 340°
2026-05-04 04:18 52.16360 -106.69713 1699 ft 134 kts 341°
2026-05-04 04:18 52.17117 -106.70138 1651 ft 115 kts 340°
2026-05-04 04:19 52.16756 -106.69930 1661 ft 133 kts 340°
2026-05-04 04:19 52.17256 -106.70092 1652 ft 72 kts 294°
2026-05-04 04:19 52.16017 -106.69395 1774 ft 124 kts 313°
2026-05-04 04:19 52.16901 -106.70010 1652 ft 102 kts 341°